This demonstration page uses our WeatherBlox Daily Observations layout. Learn more.

Left ArrowRight Arrow

34.74481, -87.66753

Hourly Observations for June 23, 2017

Temp ( °F °C ) Dew Point ( °F °C ) Humidity (%) Winds ( mph kmh ) Pressure ( in mb ) Visibility ( mi km ) Precip ( " mm )
12:30 am 00:30 Mostly Cloudy 79 26.1 72 22.2 79 79 S 13 20 29.85 1011 10 16 0.00 0.00
12:53 am 00:53 Mostly Clear 78 25.6 72 22.2 82 82 S 13 20 29.87 1012 10 16 0.00 0.00
1:24 am 01:24 Mostly Cloudy 79 26.1 71 21.7 77 77 S 15 24 29.85 1011 10 16 0.00 0.00
1:40 am 01:40 Cloudy 79 26.1 71 21.7 77 77 S 13 20 29.85 1011 10 16 0.00 0.00
1:53 am 01:53 Mostly Cloudy 79 26.1 71 21.7 77 77 S 10 17 29.86 1011 10 16 0.00 0.00
2:19 am 02:19 Cloudy 78 25.6 71 21.7 79 79 S 12 19 29.85 1011 10 16 0.00 0.00
2:53 am 02:53 Cloudy 78 25.6 71 21.7 79 79 S 9 15 29.85 1011 10 16 0.00 0.00
3:11 am 03:11 Cloudy 78 25.6 70 21.1 76 76 S 10 17 29.85 1011 10 16 0.00 0.00
3:49 am 03:49 Mostly Cloudy 79 26 72 22 79 79 S 13 20 29.83 1010 10 16 0.00 0.00
3:53 am 03:53 Mostly Cloudy 78 25.6 71 21.7 79 79 S 12 19 29.83 1010 10 16 0.00 0.00
4:53 am 04:53 Cloudy 78 25.6 70 21.1 76 76 S 12 19 29.84 1011 10 16 0.00 0.00
5:53 am 05:53 Cloudy 77 25 70 21.1 79 79 S 10 17 29.85 1011 10 16 0.00 0.00
6:53 am 06:53 Mostly Cloudy 78 25.6 71 21.7 79 79 S 10 17 29.84 1010 10 16 0.00 0.00
7:53 am 07:53 Cloudy 79 26.1 71 21.7 77 77 S 10 17 29.84 1011 10 16 0.00 0.00
8:53 am 08:53 Cloudy 81 27.2 71 21.7 72 72 S 10 17 29.83 1010 10 16 0.00 0.00
9:49 am 09:49 Mostly Cloudy 82 28 72 22 70 70 S 16 26 29.83 1010 10 16 0.00 0.00
9:53 am 09:53 Mostly Cloudy 83 28.3 72 22.2 70 70 S 16 26 29.82 1010 10 16 0.00 0.00
10:53 am 10:53 Mostly Cloudy 83 28.3 72 22.2 70 70 S 17 28 29.80 1009 10 16 0.00 0.00
11:29 am 11:29 Mostly Cloudy 83 28.3 71 21.7 67 67 S 26 43 29.80 1009 10 16 0.00 0.00
11:53 am 11:53 Mostly Cloudy 84 28.9 72 22.2 67 67 SSW 20 31 29.78 1008 10 16 0.00 0.00
12:53 pm 12:53 Cloudy with Heavy Rain 78 25.6 73 22.8 85 85 W 21 33 29.79 1009 3 5 0.39 9.91
1:01 pm 13:01 Cloudy with Heavy Rain 76 24.4 73 22.8 91 91 WSW 16 26 29.80 1009 3 5 0.24 6.10
1:25 pm 13:25 Cloudy with Heavy Rain 76 24.4 73 22.8 91 91 WSW 13 20 29.83 1010 9 14 0.61 15.49
1:48 pm 13:48 Cloudy with Rain 75 24 72 22 89 89 SW 20 31 29.83 1010 10 16 0.68 17.27
1:53 pm 13:53 Cloudy with Light Rain 76 24.4 72 22.2 88 88 WSW 15 24 29.79 1009 10 16 0.69 17.53
2:21 pm 14:21 Cloudy with Light Rain 75 23.9 72 22.2 90 90 SW 12 19 29.83 1010 10 16 0.04 1.02
2:53 pm 14:53 Cloudy with Light Rain 76 24.4 72 22.2 88 88 WSW 15 24 29.80 1009 10 16 0.08 2.03
3:14 pm 15:14 Cloudy with Light Rain 75 23.9 72 22.2 90 90 SW 14 22 29.83 1010 10 16 0.01 0.25
3:43 pm 15:43 Cloudy with Light Rain 76 24.4 72 22.2 88 88 WSW 17 28 29.80 1009 10 16 0.02 0.51
3:53 pm 15:53 Cloudy 76 24.4 72 22.2 88 88 WSW 15 24 29.80 1009 10 16 0.02 0.51
4:05 pm 16:05 Cloudy 76 24.4 72 22.2 88 88 WSW 14 22 29.83 1010 10 16 0.00 0.00
4:53 pm 16:53 Cloudy 77 25 72 22.2 85 85 WSW 13 20 29.81 1010 10 16 0.00 0.00
5:53 pm 17:53 Cloudy 77 25 73 22.8 88 88 WSW 12 19 29.82 1010 10 16 0.00 0.00
6:24 pm 18:24 Cloudy 77 25 73 22.8 88 88 SW 8 13 29.83 1010 10 16 0.00 0.00
6:49 pm 18:49 Mostly Cloudy 79 26 73 23 84 84 SW 9 15 29.83 1010 10 16 0.00 0.00
6:53 pm 18:53 Mostly Cloudy 78 25.6 73 22.8 85 85 SW 9 15 29.83 1010 10 16 0.00 0.00
7:04 pm 19:04 Mostly Cloudy 78 25.6 73 22.8 85 85 WSW 10 17 29.83 1010 10 16 0.00 0.00
7:53 pm 19:53 Cloudy 78 25.6 73 22.8 85 85 WSW 6 9 29.87 1012 10 16 0.00 0.00
8:02 pm 20:02 Mostly Cloudy 78 25.6 73 22.8 85 85 SW 7 11 29.88 1012 10 16 0.00 0.00
8:16 pm 20:16 Partly Cloudy 77 25 73 22.8 88 88 SW 5 7 29.88 1012 10 16 0.00 0.00
8:53 pm 20:53 Mostly Cloudy 77 25 73 22.8 88 88 S 6 9 29.90 1013 10 16 0.00 0.00
9:53 pm 21:53 Clear 75 23.9 73 22.8 94 94 S 3 6 29.90 1013 10 16 0.00 0.00
10:53 pm 22:53 Clear 75 23.9 72 22.2 90 90 S 6 9 29.87 1012 10 16 0.00 0.00
11:27 pm 23:27 Mostly Clear 75 23.9 73 22.8 94 94 SSW 6 9 29.88 1012 10 16 0.00 0.00
11:53 pm 23:53 Clear 76 24.4 73 22.8 91 91 S 7 11 29.88 1012 10 16 0.00 0.00

Powered by AerisWeather